Regional Weather Roundup
Issued by NWS

Home | Current Version | Previous Version | Graphics & Text | Print | Product List | Glossary On
Versions: 1 2 3 4 5 6 7 8 9 10 11 12 13 14 15 16 17 18 19 20 21 22 23 24 25 26 27 28 29 30 31 32 33 34 35 36 37 38 39 40 41 42 43 44 45 46 47 48 49 50
000
ASUS43 KLSX 280907
RWRMO

WEATHER SUMMARY FOR MISSOURI
NATIONAL WEATHER SERVICE SPRINGFIELD MO
300 AM CST WED JAN 28 2015

NOTE: "FAIR" INDICATES FEW OR NO CLOUDS BELOW 12,000 FEET WITH NO
       SIGNIFICANT WEATHER AND/OR OBSTRUCTIONS TO VISIBILITY.
       CURRENT SKY AND/OR WEATHER CONDITIONS ARE NOT AVAILABLE FOR
       CHILLICOTHE AND FARMINGTON.

MOZ001>031-035>038-043-044-053-054-281000-
...NORTHERN AND WESTERN MISSOURI...

CITY           SKY/WX    TMP DP  RH WIND       PRES   REMARKS
KANSAS CTY INT CLEAR     40  30  67 SE16      29.98F
KANSAS C DTWN  CLEAR     45  29  53 VRB7      30.00F
LEE`S SUMMIT   CLEAR     41  29  62 SE10      30.00F
ST JOSEPH      CLEAR     40  30  67 SE12      29.99F
CHILLICOTHE      N/A     33  29  85 SE7       30.08F WCI  27
KIRKSVILLE     PTCLDY    28  27  96 SE12      30.13F FOG     WCI  18

$$
MOZ066>068-077>081-088>096-101>105-281000-
...SOUTHWEST MISSOURI...

CITY           SKY/WX    TMP DP  RH WIND       PRES   REMARKS
SPRINGFIELD    CLEAR     44  31  60 SE20G26   30.07F
JOPLIN         CLEAR     49  29  46 SE12      30.04S

$$
MOZ032>034-039>042-045>050-055>058-069>072-281000-
...CENTRAL MISSOURI...

CITY           SKY/WX    TMP DP  RH WIND       PRES   REMARKS
COLUMBIA       CLEAR     32  29  88 SE12      30.14S WCI  23
JEFFERSON CITY CLEAR     34  29  82 E9        30.16F WCI  27
ROLLA          CLEAR     32  28  85 SE13      30.13F WCI  22
SEDALIA        CLEAR     36  29  75 SE10      30.08F WCI  28
WHITEMAN AFB   CLEAR     37  30  77 SE8       30.04F
WARRENSBURG    CLEAR     39  30  70 SE9       30.04F
OSAGE BEACH    CLEAR     39  28  65 SE8       30.11F

$$
MOZ051-052-059>065-281000-
...EAST CENTRAL MISSOURI...

CITY           SKY/WX    TMP DP  RH WIND       PRES   REMARKS
ST LOUIS INTL  CLEAR     31  25  78 SE8       30.25R WCI  23
SPIRIT OF STL  CLEAR     29  25  85 CALM      30.24R
ST CHARLES     CLEAR     28  25  88 SE5       30.26R WCI  23

$$
MOZ072>076-082>087-097>100-106>115-281000-
...SOUTH CENTRAL AND SOUTHEAST MISSOURI...

CITY           SKY/WX    TMP DP  RH WIND       PRES   REMARKS
CAPE GIRARDEAU CLEAR     27  25  92 E3        30.27S
FARMINGTON     CLEAR     27  25  93 MISG      30.26S
POPLAR BLUFF   CLEAR     32  27  81 NE3       30.25S
WEST PLAINS    CLEAR     35  29  78 SE8       30.19F WCI  29

$$


USA.gov is the U.S. government's official web portal to all federal, state and local government web resources and services.